• MPC Preparation (Info)

  • MPEC 2023-H224 : 2023 HG6

    The following Minor Planet Electronic Circular may be linked-to from your own Web pages, but must not otherwise be redistributed electronically.

    A form allowing access to any MPEC is at the bottom of this page.


    Read MPEC 2023-H223 Read MPEC 2023-H225


    M.P.E.C. 2023-H224                               Issued 2023 April 28, 00:56 UT
    
         The Minor Planet Electronic Circulars contain information on unusual
             minor planets, routine data on comets and natural satellites,
             and occasional editorial announcements.  They are published
        on behalf of Division F of the International Astronomical Union by the
              Minor Planet Center, Smithsonian Astrophysical Observatory,
                              Cambridge, MA 02138, U.S.A.
    			  
                 Prepared using the Tamkin Foundation Computer Network
    
                                  MPC@CFA.HARVARD.EDU
                URL https://www.minorplanetcenter.net/    ISSN 1523-6714
    
                                    2023 HG6                                 
    
    
    Observations:
         K23H06G*1C2023 04 25.31952714 24 26.698+34 23 44.95         21.21GVEH224G96
         K23H06G 1C2023 04 25.32476914 24 25.387+34 23 20.83         22.29GVEH224G96
         K23H06G 1C2023 04 25.32995414 24 24.160+34 22 58.40         21.42GVEH224G96
         K23H06G 1C2023 04 25.33514614 24 22.860+34 22 35.36         21.57GVEH224G96
         K23H06G 1C2023 04 25.47922814 23 49.400+34 11 48.00         21.75GVEH224G96
         K23H06G 1C2023 04 25.48378814 23 48.360+34 11 26.60         21.38GVEH224G96
         K23H06G 1C2023 04 25.48834814 23 47.300+34 11 06.30         21.76GVEH224G96
         K23H06G KC2023 04 26.27115714 21 01.190+33 11 41.40         21.04GVEH224V06
         K23H06G KC2023 04 26.27390814 21 00.490+33 11 28.20         21.35GVEH224V06
         K23H06G KC2023 04 26.27665914 20 59.850+33 11 15.60         21.46GVEH224V06
         K23H06G  C2023 04 27.22306414 17 30.676+31 54 19.31         21.0 GVEH224H01
         K23H06G  C2023 04 27.22783814 17 29.506+31 53 55.45         21.1 GVEH224H01
         K23H06G  C2023 04 27.23792914 17 27.038+31 53 05.14         21.3 GVEH224H01
         K23H06G  C2023 04 27.24430314 17 25.480+31 52 33.45         20.8 GVEH224H01
         K23H06G KC2023 04 27.41592014 16 43.428+31 37 58.26         21.23GVEH224I52
         K23H06G KC2023 04 27.42814514 16 40.447+31 36 54.22         21.83GVEH224I52
         K23H06G KC2023 04 27.43874514 16 37.880+31 35 59.10         21.70GVEH224I52
         K23H06G hC2023 04 28.02006314 14 27.70 +30 45 12.8          21.0 GVEH224L01
         K23H06G hC2023 04 28.02090314 14 27.49 +30 45 08.5          21.1 GVEH224L01
         K23H06G hC2023 04 28.02174314 14 27.29 +30 45 03.5          21.2 GVEH224L01
         K23H06G hC2023 04 28.02342314 14 26.95 +30 44 54.9          21.3 GVEH224L01
         K23H06G pC2023 04 28.02510314 14 26.52 +30 44 45.5          21.5 GVEH224L01
    
    Observer details:
    G96 Mt. Lemmon Survey.  Observer J. B. Fazekas.  Measurers E. J. Christensen,
        D. Fay, J. B. Fazekas, D. C. Fuls, A. R. Gibbs, A. D. Grauer, H. Groeller,
        J. K. Hogan, R. A. Kowalski, S. M. Larson, G. J. Leonard, D. Rankin, R. L.
        Seaman, A. Serrano, F. C. Shelly, K. W. Wierzchos.  1.5-m reflector + 10K
        CCD.
    H01 Magdalena Ridge Observatory, Socorro.  Observers W. H. Ryan, E. V. Ryan.
        Measurer W. H. Ryan.  2.4-m f/8.9 Ritchey-Chretien + CCD.
    I52 Steward Observatory, Mt. Lemmon Station.  Observer A. Serrano.  Measurers
        E. J. Christensen, D. Fay, J. B. Fazekas, D. C. Fuls, A. R. Gibbs, A. D.
        Grauer, H. Groeller, J. K. Hogan, R. A. Kowalski, S. M. Larson, G. J.
        Leonard, D. Rankin, R. L. Seaman, A. Serrano, F. C. Shelly, K. W.
        Wierzchos.  1.0-m prime focus + CCD.
    L01 Visnjan Observatory, Tican.  Observer K. Korlevic.  1.0-m f/2.9 reflector
        + CCD.
    V06 Catalina Sky Survey-Kuiper.  Observer A. Serrano.  Measurers E. J.
        Christensen, D. Fay, J. B. Fazekas, D. C. Fuls, A. R. Gibbs, A. D. Grauer,
        H. Groeller, J. K. Hogan, R. A. Kowalski, S. M. Larson, G. J. Leonard, D.
        Rankin, R. L. Seaman, A. Serrano, F. C. Shelly, K. W. Wierzchos.  1.55-m
        reflector + 1K CCD.
    
    Orbital elements:
    2023 HG6                                                 Earth MOID = 0.1049 AU
    Epoch 2023 Feb. 25.0 TT = JDT 2460000.5                 MPC                     
    M 314.89037              (2000.0)            P               Q                  
    n   0.56533827     Peri.  181.18989     -0.63442165     +0.72589584             
    a   1.4485399      Node    49.50672     -0.70628488     -0.40469144             
    e   0.2304748      Incl.   20.44779     -0.31411916     -0.55614752             
    P   1.74           H   23.79          G   0.15           U   8                  
    Residuals in seconds of arc
    230425 G96  0.4+  0.9+    230426 V06  0.2-  0.2-    230427 I52  0.2-  0.1+
    230425 G96  0.5-  0.2-    230426 V06  0.2+  0.1+    230428 L01  0.4-  0.3+
    230425 G96  0.5-  0.1+    230427 H01  0.0   0.0     230428 L01  0.5-  0.5+
    230425 G96  1.3-  0.1-    230427 H01  0.1-  0.1-    230428 L01  0.4-  0.1+
    230425 G96  0.6+  0.2-    230427 H01  0.0   0.1-    230428 L01  0.5+  0.5+
    230425 G96  0.5+  0.7-    230427 H01  0.1+  0.1+    230428 L01  0.3+  0.2+
    230425 G96  0.2+  0.2-    230427 I52  0.2+  0.0
    230426 V06  0.3+  0.2+    230427 I52  0.1-  0.3-
    
    Ephemeris:
    2023 HG6                 a,e,i = 1.45, 0.23, 20                  q = 1.1147
    Date    TT    R. A. (2000) Decl.     Delta      r    Elong.  Phase     V
    2023 03 29    15 19 22.4 +47 08 06   0.3100  1.1734   117.4    49.1    23.4
    ...
    2023 04 13    15 00 09.8 +43 53 28   0.2290  1.1433   123.0    47.4    22.7
    ...
    2023 04 21    14 38 57.5 +38 51 38   0.1881  1.1313   128.4    44.1    22.1
    ...
    2023 04 27    14 18 19.1 +32 13 04   0.1607  1.1243   134.2    39.9    21.7
    2023 04 28    14 14 33.7 +30 47 19   0.1566  1.1233   135.3    39.1    21.6
    2023 04 29    14 10 43.8 +29 15 19   0.1527  1.1224   136.4    38.2    21.5
    ...
    2023 05 05    13 46 37.0 +17 42 12   0.1332  1.1179   143.2    32.7    21.0
    ...
    2023 05 13    13 13 50.7 -03 03 33   0.1233  1.1149   146.3    30.2    20.8
    ...
    2023 05 28    12 24 24.7 -37 39 05   0.1607  1.1187   127.7    45.8    21.8
    
    A. U. Tomatic                (C) Copyright 2023 MPC           M.P.E.C. 2023-H224
    


    Read MPEC 2023-H223 Read MPEC 2023-H225


    MPEC number:

    Enter an MPEC number in one of the following forms:

    • 1997-B01 (the full form)
    • J97B01 (the packed version of the full form)
    • B01 (the abbreviated form)